• Processing (Info)

  • MPEC 2006-B70 : 2006 BE55

    The following Minor Planet Electronic Circular may be linked-to from your own Web pages, but must not otherwise be redistributed electronically.

    A form allowing access to any MPEC is at the bottom of this page.


    Read MPEC 2006-B69 Read MPEC 2006-B71


    M.P.E.C. 2006-B70                                Issued 2006 Jan. 28, 18:18 UT
    
         The Minor Planet Electronic Circulars contain information on unusual
             minor planets and routine data on comets.  They are published
       on behalf of Commission 20 of the International Astronomical Union by the
              Minor Planet Center, Smithsonian Astrophysical Observatory,
                              Cambridge, MA 02138, U.S.A.
    
                      Supported in part by the Brinson Foundation
                      Supported in part by the TABASGO Foundation
                 Prepared using the Tamkin Foundation Computer Network
    
                                  MPC@CFA.HARVARD.EDU
              URL http://cfa-www.harvard.edu/iau/mpc.html  ISSN 1523-6714
    
                                       2006 BE55
    
    Observations:
         K06B55E* C2006 01 26.37821 11 09 15.28 +07 10 18.0          20.7 V EB070691
         K06B55E  C2006 01 26.39556 11 09 16.93 +07 10 18.0          20.9 V EB070691
         K06B55E  C2006 01 26.41291 11 09 18.56 +07 10 17.8          21.0 V EB070691
         K06B55E  C2006 01 26.43056 11 09 20.19 +07 10 17.1          21.2 V EB070G96
         K06B55E  C2006 01 26.43655 11 09 20.73 +07 10 17.0          21.2 V EB070G96
         K06B55E  C2006 01 26.44255 11 09 21.31 +07 10 16.8          21.4 V EB070G96
         K06B55E  C2006 01 26.44850 11 09 21.92 +07 10 17.1          20.8 V EB070G96
         K06B55E  C2006 01 26.47160 11 09 24.13 +07 10 17.4          21.2 V EB070291
         K06B55E  C2006 01 26.47536 11 09 24.45 +07 10 17.3          21.0 V EB070291
         K06B55E  C2006 01 26.47919 11 09 24.83 +07 10 17.1          21.2 V EB070291
         K06B55E  C2006 01 26.48778 11 09 25.59 +07 10 16.5          20.0 V EB070G96
         K06B55E  C2006 01 26.49544 11 09 26.35 +07 10 16.2          20.5 V EB070G96
         K06B55E  C2006 01 26.50318 11 09 27.07 +07 10 16.3          19.9 V EB070G96
         K06B55E  C2006 01 26.51090 11 09 27.82 +07 10 16.0          19.8 V EB070G96
         K06B55E FC2006 01 26.99861 11 10 21.41 +07 10 09.0                 EB070246
         K06B55E FC2006 01 27.00106 11 10 21.53 +07 10 07.8                 EB070246
         K06B55E FC2006 01 27.00669 11 10 22.32 +07 10 06.3                 EB070246
         K06B55E  C2006 01 27.28075 11 10 52.46 +07 10 15.2          20.1 R EB070854
         K06B55E  C2006 01 27.29038 11 10 53.63 +07 10 15.7          20.1 R EB070854
         K06B55E  C2006 01 27.29998 11 10 54.49 +07 10 15.9          20.1 R EB070854
         K06B55E  C2006 01 27.30789 11 10 55.26 +07 10 15.9          20.4 V EB070291
         K06B55E  C2006 01 27.31171 11 10 55.69 +07 10 16.6          20.9 V EB070291
         K06B55E  C2006 01 27.31611 11 10 56.12 +07 10 16.7          20.9 V EB070291
         K06B55E  C2006 01 27.59102 11 11 25.35 +07 10 59.9          21.1 R EB070474
         K06B55E  C2006 01 27.59452 11 11 25.74 +07 10 59.3          20.8 R EB070474
         K06B55E  C2006 01 27.59837 11 11 26.10 +07 11 00.0          20.8 R EB070474
         K06B55E  C2006 01 27.60275 11 11 26.53 +07 10 59.7          21.2 R EB070474
         K06B55E  C2006 01 27.60648 11 11 27.00 +07 11 00.0                 EB070474
         K06B55E  C2006 01 28.36971 11 12 51.62 +07 10 39.6          20.4 V EB070G96
         K06B55E  C2006 01 28.37560 11 12 52.20 +07 10 39.7          20.5 V EB070G96
         K06B55E  C2006 01 28.38150 11 12 52.81 +07 10 40.2          20.6 V EB070G96
         K06B55E  C2006 01 28.38754 11 12 53.42 +07 10 39.9          20.2 V EB070G96
         K06B55E  C2006 01 28.54285 11 13 09.15 +07 10 46.5          22.3 V EB070291
         K06B55E  C2006 01 28.54767 11 13 09.66 +07 10 46.6          22.1 V EB070291
         K06B55E  C2006 01 28.55184 11 13 10.10 +07 10 46.4          21.2 V EB070291
         K06B55E  C2006 01 28.61574 11 13 19.03 +07 11 30.1          20.6 R EB070474
         K06B55E  C2006 01 28.61880 11 13 19.34 +07 11 29.9          20.8 R EB070474
         K06B55E  C2006 01 28.62188 11 13 19.64 +07 11 30.3          20.1 R EB070474
    
    Observer details:
    246 Klet Observatory-KLENOT.  Observer M. Tichy.  1.06-m KLENOT Telescope
        + CCD.
    291 LPL/Spacewatch II.  Observers T. H. Bressi, M. T. Read, A. S. Descour,
        J. V. Scotti.  1.8-m f/2.7 reflector + CCD.
    474 Mount John Observatory, Lake Tekapo.  Observer A. C. Gilmore.  0.6-m f/7.6
        reflector + CCD.
    691 Steward Observatory, Kitt Peak.  Observers T. H. Bressi, M. T. Read.
        0.9-m f/3 reflector + CCD.
    854 Sabino Canyon Observatory, Tucson.  Observer J. E. McGaha.  0.36-m f/10.0
        Schmidt-Cassegrain + CCD.
    G96 Mt. Lemmon Survey.  Observers S. M. Larson, E. J. Christensen.  Measurers
        E. C. Beshore, E. J. Christensen, G. J. Garradd, A. D. Grauer, R. E. Hill,
        R. A. Kowalski, S. M. Larson, R. H. McNaught.  1.5-m reflector + CCD.
    
    Orbital elements:
    2006 BE55                                           PHA, Earth MOID = 0.0237 AU
    Epoch 2006 Mar. 6.0 TT = JDT 2453800.5                  MPC
    M 321.31055              (2000.0)            P               Q
    n   0.75277581     Peri.  125.65565     -0.31792548     +0.94749436
    a   1.1968111      Node   125.77117     -0.88297869     -0.28270430
    e   0.4230408      Incl.    2.42426     -0.34535780     -0.14944134
    P   1.31           H   21.9           G   0.15           U   9
    Residuals in seconds of arc
    060126 691  0.1+  0.0     060126 G96  0.1-  0.1-    060127 474  0.0   0.0
    060126 691  0.2+  0.1+    060126 246  0.3+  1.9+    060127 474  1.4+  0.2+
    060126 691  0.1+  0.0     060127 246  1.5-  0.7+    060128 G96  0.3-  0.3-
    060126 G96  0.0   0.3-    060127 246  1.9+  0.8-    060128 G96  0.5-  0.4-
    060126 G96  0.4-  0.3-    060127 854  1.6-  0.1-    060128 G96  0.2-  0.2-
    060126 G96  0.2-  0.4-    060127 854  1.4+  0.1+    060128 G96  0.2-  0.7-
    060126 G96  0.5+  0.0     060127 854  0.1-  0.1+    060128 291  0.4-  0.8+
    060126 291  0.5+  0.3+    060127 291  0.8-  0.2-    060128 291  0.3-  0.8+
    060126 291  0.0   0.3+    060127 291  0.0   0.4+    060128 291  0.2-  0.5+
    060126 291  0.2+  0.2+    060127 291  0.1-  0.4+    060128 474  0.9+  0.1+
    060126 G96  0.3-  0.0     060127 474  0.2-  0.4+    060128 474  0.8+  0.3-
    060126 G96  0.1+  0.2-    060127 474  0.4+  0.2-    060128 474  0.6+  0.0
    060126 G96  0.2-  0.0     060127 474  0.1+  0.4+
    
    Ephemeris:
    2006 BE55                a,e,i = 1.20, 0.42, 2                   q = 0.6905
    Date    TT    R. A. (2000) Decl.     Delta      r     Elong.  Phase     V
    2006 01 25    11 06.87   +07 11.1    0.294    1.223   139.8    31.3    21.0
    2006 01 27    11 10.35   +07 10.5    0.274    1.210   141.0    30.8    20.8
    2006 01 29    11 14.04   +07 11.4    0.256    1.197   142.2    30.3    20.6
    2006 01 31    11 18.01   +07 14.0    0.237    1.184   143.3    29.8    20.4
    2006 02 02    11 22.34   +07 18.5    0.219    1.170   144.3    29.4    20.2
    2006 02 04    11 27.13   +07 25.2    0.201    1.157   145.3    29.1    20.0
    2006 02 06    11 32.55   +07 34.5    0.183    1.143   146.0    28.8    19.8
    2006 02 08    11 38.78   +07 46.8    0.166    1.129   146.6    28.7    19.5
    2006 02 10    11 46.13   +08 02.9    0.149    1.115   146.9    28.9    19.3
    2006 02 12    11 55.00   +08 23.5    0.133    1.101   146.8    29.4    19.0
    2006 02 14    12 06.02   +08 49.9    0.117    1.086   146.2    30.4    18.7
    2006 02 16    12 20.17   +09 24.0    0.101    1.072   144.8    32.1    18.4
    2006 02 18    12 39.02   +10 07.7    0.0861   1.058   142.2    35.0    18.1
    2006 02 20    13 05.21   +11 03.1    0.0720   1.043   137.7    39.6    17.8
    2006 02 22    13 43.11   +12 09.5    0.0593   1.029   130.3    47.2    17.6
    2006 02 24    14 39.09   +13 12.6    0.0489   1.014   118.5    59.1    17.5
    2006 02 26    15 57.66   +13 25.0    0.0426   0.999   101.2    76.4    17.7
    2006 02 28    17 28.93   +11 46.3    0.0421   0.985    80.6    97.0    18.5
    2006 03 02    18 49.02   +08 47.9    0.0476   0.970    62.3   115.2    19.7
    2006 03 04    19 46.56   +05 56.8    0.0573   0.955    49.4   128.0    21.1
    2006 03 06    20 25.53   +03 46.0    0.0697   0.941    41.1   136.1    22.4
    
    Kyle E. Smalley              (C) Copyright 2006 MPC           M.P.E.C. 2006-B70
    

    Read MPEC 2006-B69 Read MPEC 2006-B71


    MPEC number:

    Enter an MPEC number in one of the following forms:

    • 1997-B01 (the full form)
    • J97B01 (the packed version of the full form)
    • B01 (the abbreviated form)